Location: Kellogg
(38.0159°N, 90.0546°W)
Time: 22:01:50
(UTC+00:00)

Vanguard 1 - Pass Details

Date: 17 September 2024
Orbit: 648 x 3825 km, 34.3° (Epoch: 12 October)

Event Time Altitude Azimuth Distance (km) Brightness Sun altitude
Rises 18:08:59 0° 245° (WSW) 6,820 14.6 53.7°
Reaches altitude 10° 18:14:17 10° 243° (WSW) 5,317 14.2 53.5°
Maximum altitude 18:27:44 60° 168° (SSE) 1,799 13.4 53.0°
Drops below altitude 10° 18:34:57 10° 90° (E) 2,963 12.5 52.7°
Sets 18:37:05 0° 87° (E) 3,681 12.9 52.5°
